Voltar ao catálogo

STARLINK-31465

AtivoComunicaçõesVLEO
NORAD 59012·PAYLOAD·🇺🇸 United States

Lançado Feb 23, 2024 de Vandenberg Space Force Base

Loading…

Próximas Passagens (próximas 24 horas)

TLE

AtualizadoSource: CelesTrak SupGP

Época: Sep 15, 2026, 03:08 UTC

1 59012C 24036Q   26258.13104167 -.00005317  00000+0 -17092-3 0  2585
2 59012  53.1564 277.9581 0001239  85.2521 173.9729 15.31715200    14

Acompanhe STARLINK-31465 em tempo real com AllMySat

Download on the App Store